EW9957 Weather Reports


Display with metric or nautical units.
time (UTC)temp
F
wind
direction
speed
MPH
gust
MPH
rain 1hr
in
rain 24hr
in
rain mn
in
humidity
%
barometer
mb
20260906073015 76 35 0.0 0.0 0.00 0.00 0.00 59 1014.1
20260906072603 75 35 0.0 0.0 0.00 0.00 0.00 55 1014.2
20260906072520 75 35 0.0 0.0 0.00 0.00 0.00 55 1014.2
20260906072037 75 36 0.0 0.0 0.00 0.00 0.00 55 1014.0
20260906071536 75 34 0.0 0.0 0.00 0.00 0.00 57 1014.1
20260906071029 76 36 0.0 0.0 0.00 0.00 0.00 59 1014.1
20260906070558 76 35 0.0 0.0 0.00 0.00 0.00 58 1014.1
20260906070516 76 35 0.0 0.0 0.00 0.00 0.00 58 1014.1
20260906070020 76 37 0.0 0.0 0.00 0.00 0.00 58 1014.0
20260906065535 76 36 0.0 0.0 0.00 0.00 0.00 58 1014.0
20260906065027 76 37 0.0 0.0 0.00 0.00 0.00 58 1014.0
20260906064606 76 37 0.0 0.0 0.00 0.00 0.00 57 1014.0
20260906064523 76 37 0.0 0.0 0.00 0.00 0.00 57 1014.0
20260906064021 76 37 0.0 2.0 0.00 0.00 0.00 57 1013.9
20260906063514 76 36 1.0 2.0 0.00 0.00 0.00 57 1014.1
20260906063013 76 32 1.0 3.0 0.00 0.00 0.00 58 1014.1
20260906062548 76 38 2.0 3.0 0.00 0.00 0.00 59 1014.1
20260906062101 76 34 2.0 3.0 0.00 0.00 0.00 56 1014.1
20260906062018 76 34 2.0 3.0 0.00 0.00 0.00 56 1014.1
20260906061519 77 36 1.0 2.0 0.00 0.00 0.00 51 1014.1
20260906061033 77 37 1.0 3.0 0.00 0.00 0.00 48 1013.9
20260906060607 77 35 1.0 3.0 0.00 0.00 0.00 46 1013.9
20260906060524 77 35 1.0 3.0 0.00 0.00 0.00 46 1013.9
20260906060059 78 35 0.0 3.0 0.00 0.00 0.00 41 1013.9
20260906055514 78 35 2.0 3.0 0.00 0.00 0.00 40 1013.9
20260906055105 78 37 2.0 3.0 0.00 0.00 0.00 37 1014.0
20260906055022 78 37 2.0 3.0 0.00 0.00 0.00 37 1014.0
20260906054523 78 38 0.0 1.0 0.00 0.00 0.00 38 1014.0
20260906054020 78 35 1.0 1.0 0.00 0.00 0.00 37 1013.9
20260906053513 78 35 0.0 0.0 0.00 0.00 0.00 37 1014.0
20260906053053 78 35 0.0 0.0 0.00 0.00 0.00 38 1014.1
20260906052548 79 35 0.0 0.0 0.00 0.00 0.00 38 1014.1
20260906052102 78 35 0.0 0.0 0.00 0.00 0.00 39 1014.0
20260906052019 78 35 0.0 0.0 0.00 0.00 0.00 39 1014.0
20260906051557 78 35 0.0 0.0 0.00 0.00 0.00 40 1014.0
20260906051515 78 35 0.0 0.0 0.00 0.00 0.00 40 1014.0
20260906051027 78 32 0.0 0.0 0.00 0.00 0.00 39 1014.0
20260906050541 78 34 0.0 0.0 0.00 0.00 0.00 38 1014.0
20260906050111 78 35 0.0 2.0 0.00 0.00 0.00 40 1014.1
20260906045522 78 35 0.0 2.0 0.00 0.00 0.00 39 1014.1
20260906045056 78 35 0.0 2.0 0.00 0.00 0.00 42 1014.1
20260906045013 78 35 0.0 2.0 0.00 0.00 0.00 42 1014.1
20260906044514 79 37 0.0 2.0 0.00 0.00 0.00 41 1014.2
20260906044109 79 34 0.0 2.0 0.00 0.00 0.00 42 1014.0
20260906043559 78 35 0.0 0.0 0.00 0.00 0.00 42 1014.1
20260906043517 78 35 0.0 0.0 0.00 0.00 0.00 42 1014.1
20260906043017 78 36 0.0 0.0 0.00 0.00 0.00 42 1014.0
20260906042549 78 35 0.0 0.0 0.00 0.00 0.00 43 1014.1
20260906042101 78 35 0.0 0.0 0.00 0.00 0.00 41 1014.1
20260906041602 78 34 0.0 0.0 0.00 0.00 0.00 43 1014.0
20260906041519 78 34 0.0 0.0 0.00 0.00 0.00 43 1014.0
20260906041053 78 34 0.0 0.0 0.00 0.00 0.00 43 1014.0
20260906040525 78 35 0.0 0.0 0.00 0.00 0.00 42 1013.9
20260906040107 78 35 0.0 0.0 0.00 0.00 0.00 42 1013.9
20260906035541 79 34 0.0 1.0 0.00 0.00 0.00 43 1014.0
20260906035113 78 32 0.0 2.0 0.00 0.00 0.00 43 1014.0
20260906034529 78 34 0.0 2.0 0.00 0.00 0.00 45 1014.0
20260906034102 78 34 0.0 1.0 0.00 0.00 0.00 45 1014.0
20260906034020 78 34 0.0 1.0 0.00 0.00 0.00 45 1014.0
20260906033553 78 35 0.0 2.0 0.00 0.00 0.00 46 1014.0
20260906033053 78 35 0.0 2.0 0.00 0.00 0.00 46 1014.0
20260906032526 78 35 0.0 2.0 0.00 0.00 0.00 46 1014.0
20260906032101 79 36 0.0 2.0 0.00 0.00 0.00 44 1013.9
20260906032018 79 36 0.0 2.0 0.00 0.00 0.00 44 1013.9
20260906031519 79 35 0.0 2.0 0.00 0.00 0.00 45 1013.9
20260906031113 79 35 0.0 2.0 0.00 0.00 0.00 45 1013.9
20260906030601 79 34 0.0 3.0 0.00 0.00 0.00 46 1013.8
20260906030518 79 34 0.0 3.0 0.00 0.00 0.00 46 1013.8
20260906030110 79 37 1.0 3.0 0.00 0.00 0.00 48 1013.8
20260906025541 79 34 3.0 4.0 0.00 0.00 0.00 48 1013.7
20260906025035 79 32 1.0 4.0 0.00 0.00 0.00 51 1013.8
20260906024556 78 36 3.0 4.0 0.00 0.00 0.00 52 1013.7
20260906024514 78 36 3.0 4.0 0.00 0.00 0.00 52 1013.7
20260906024027 79 35 3.0 4.0 0.00 0.00 0.00 53 1013.7
20260906023541 78 35 2.0 4.0 0.00 0.00 0.00 53 1013.6
20260906023042 78 34 2.0 4.0 0.00 0.00 0.00 52 1013.6
20260906022514 79 35 3.0 4.0 0.00 0.00 0.00 50 1013.5
20260906022049 79 34 2.0 4.0 0.00 0.00 0.00 50 1013.5
20260906021548 79 34 3.0 5.0 0.00 0.00 0.00 49 1013.5
20260906021101 79 34 4.0 8.0 0.00 0.00 0.00 47 1013.6
20260906020534 80 35 3.0 8.0 0.00 0.00 0.00 43 1013.6
20260906020056 80 34 5.0 12.0 0.00 0.00 0.00 41 1013.6
20260906015549 81 34 6.0 12.0 0.00 0.00 0.00 39 1013.5
20260906015041 81 35 5.0 9.0 0.00 0.00 0.00 38 1013.5
20260906014521 81 37 6.0 9.0 0.00 0.00 0.00 39 1013.6
20260906014114 81 36 5.0 9.0 0.00 0.00 0.00 38 1013.6
20260906014032 81 36 5.0 9.0 0.00 0.00 0.00 38 1013.6
20260906013546 82 34 6.0 9.0 0.00 0.00 0.00 36 1013.5
20260906013045 83 34 4.0 8.0 0.00 0.00 0.00 36 1013.5
20260906012517 83 34 5.0 9.0 0.00 0.00 0.00 33 1013.6
20260906012051 82 36 5.0 9.0 0.00 0.00 0.00 35 1013.7
20260906011529 83 35 5.0 9.0 0.00 0.00 0.00 35 1013.6
20260906011043 83 35 4.0 9.0 0.00 0.00 0.00 34 1013.6
20260906010521 83 34 6.0 9.0 0.00 0.00 0.00 34 1013.5
20260906010059 83 35 6.0 8.0 0.00 0.00 0.00 36 1013.5
20260906010016 83 35 6.0 8.0 0.00 0.00 0.00 36 1013.5
20260906005514 84 35 5.0 9.0 0.00 0.00 0.00 35 1013.5
20260906005029 84 34 4.0 10.0 0.00 0.00 0.00 36 1013.5
20260906004527 84 35 6.0 10.0 0.00 0.00 0.00 35 1013.5
20260906004101 84 32 6.0 9.0 0.00 0.00 0.00 38 1013.5
20260906003532 85 36 5.0 8.0 0.00 0.00 0.00 37 1013.5
20260906003053 85 36 5.0 8.0 0.00 0.00 0.00 38 1013.5
20260906002601 85 34 5.0 8.0 0.00 0.00 0.00 35 1013.4
20260906002113 84 35 5.0 9.0 0.00 0.00 0.00 37 1013.4
20260906001552 84 35 7.0 9.0 0.00 0.00 0.00 38 1013.4
20260906001104 85 34 6.0 9.0 0.00 0.00 0.00 38 1013.5
20260906001021 85 34 6.0 9.0 0.00 0.00 0.00 38 1013.5
20260906000515 85 35 4.0 11.0 0.00 0.00 0.00 39 1013.4
20260906000058 85 36 6.0 11.0 0.00 0.00 0.00 38 1013.4
20260905235549 84 34 6.0 11.0 0.00 0.00 0.00 37 1013.5
20260905235101 84 32 6.0 12.0 0.00 0.00 0.00 40 1013.5
20260905234540 84 34 6.0 12.0 0.00 0.00 0.00 40 1013.5
20260905234052 85 32 8.0 13.0 0.00 0.00 0.00 38 1013.4
20260905233604 85 36 7.0 13.0 0.00 0.00 0.00 36 1013.5
20260905233522 85 36 7.0 13.0 0.00 0.00 0.00 36 1013.5
20260905233104 85 35 7.0 11.0 0.00 0.00 0.00 34 1013.4
20260905233021 85 35 7.0 11.0 0.00 0.00 0.00 34 1013.4
20260905232515 85 32 7.0 11.0 0.00 0.00 0.00 31 1013.4
20260905232029 85 32 7.0 11.0 0.00 0.00 0.00 31 1013.4
20260905231526 86 32 6.0 11.0 0.00 0.00 0.00 29 1013.4
20260905231042 86 34 7.0 11.0 0.00 0.00 0.00 29 1013.4
20260905230556 85 35 8.0 10.0 0.00 0.00 0.00 29 1013.5
20260905230513 85 35 8.0 10.0 0.00 0.00 0.00 29 1013.5
20260905230056 85 35 6.0 10.0 0.00 0.00 0.00 31 1013.5
20260905230013 85 35 6.0 10.0 0.00 0.00 0.00 31 1013.5
20260905225549 86 36 7.0 10.0 0.00 0.00 0.00 32 1013.6
20260905225041 85 35 6.0 11.0 0.00 0.00 0.00 32 1013.6
20260905224603 86 35 8.0 11.0 0.00 0.00 0.00 31 1013.6
20260905224108 85 34 7.0 12.0 0.00 0.00 0.00 33 1013.7
20260905224025 85 34 7.0 12.0 0.00 0.00 0.00 33 1013.7
20260905223559 85 32 7.0 12.0 0.00 0.00 0.00 34 1013.7
20260905223109 86 35 8.0 12.0 0.00 0.00 0.00 35 1013.8
20260905222559 86 34 7.0 12.0 0.00 0.00 0.00 36 1013.8
20260905222111 85 35 7.0 12.0 0.00 0.00 0.00 37 1013.8
20260905221547 85 34 7.0 12.0 0.00 0.00 0.00 36 1013.9
20260905221059 85 35 8.0 12.0 0.00 0.00 0.00 36 1013.9
20260905220550 86 35 7.0 12.0 0.00 0.00 0.00 36 1013.9
20260905220029 86 35 8.0 12.0 0.00 0.00 0.00 36 1013.9
20260905215603 85 34 7.0 12.0 0.00 0.00 0.00 39 1013.9
20260905215113 86 32 8.0 12.0 0.00 0.00 0.00 38 1013.9
20260905215030 86 32 8.0 12.0 0.00 0.00 0.00 38 1013.9
20260905214613 87 35 6.0 12.0 0.00 0.00 0.00 37 1014.0
20260905214530 87 35 6.0 12.0 0.00 0.00 0.00 37 1014.0
20260905214100 87 35 6.0 11.0 0.00 0.00 0.00 36 1014.0
20260905214018 87 35 6.0 11.0 0.00 0.00 0.00 36 1014.0
20260905213515 86 31 6.0 11.0 0.00 0.00 0.00 37 1014.1
20260905213015 87 34 6.0 11.0 0.00 0.00 0.00 38 1014.1
20260905212604 88 35 6.0 9.0 0.00 0.00 0.00 36 1014.1
20260905212019 88 36 6.0 9.0 0.00 0.00 0.00 35 1014.1
20260905211520 88 36 5.0 10.0 0.00 0.00 0.00 36 1014.2
20260905211111 88 34 5.0 10.0 0.00 0.00 0.00 35 1014.2
20260905211028 88 34 5.0 10.0 0.00 0.00 0.00 35 1014.2
20260905210601 88 34 5.0 8.0 0.00 0.00 0.00 36 1014.2
20260905210519 88 34 5.0 8.0 0.00 0.00 0.00 36 1014.2
20260905210019 87 35 3.0 8.0 0.00 0.00 0.00 36 1014.3
20260905205553 87 35 4.0 9.0 0.00 0.00 0.00 37 1014.3
20260905205106 87 34 6.0 10.0 0.00 0.00 0.00 38 1014.4
20260905205023 87 34 6.0 10.0 0.00 0.00 0.00 38 1014.4
20260905204543 86 35 5.0 10.0 0.00 0.00 0.00 38 1014.4
20260905204015 85 35 5.0 10.0 0.00 0.00 0.00 38 1014.5
20260905203529 86 32 5.0 9.0 0.00 0.00 0.00 38 1014.5
20260905203027 87 35 3.0 7.0 0.00 0.00 0.00 36 1014.5
20260905202601 86 34 4.0 7.0 0.00 0.00 0.00 38 1014.5
20260905202112 86 34 4.0 6.0 0.00 0.00 0.00 38 1014.5
20260905202030 86 34 4.0 6.0 0.00 0.00 0.00 38 1014.5
20260905201528 84 35 3.0 7.0 0.00 0.00 0.00 39 1014.6
20260905201023 85 38 3.0 7.0 0.00 0.00 0.00 39 1014.7
20260905200517 84 34 3.0 5.0 0.00 0.00 0.00 39 1014.8
20260905200109 85 35 2.0 5.0 0.00 0.00 0.00 42 1014.9
20260905195539 84 35 2.0 7.0 0.00 0.00 0.00 43 1014.9
20260905195051 83 36 3.0 7.0 0.00 0.00 0.00 45 1014.9
20260905194552 82 34 4.0 7.0 0.00 0.00 0.00 45 1015.0
20260905194044 82 32 3.0 6.0 0.00 0.00 0.00 47 1015.1
20260905193516 82 35 2.0 6.0 0.00 0.00 0.00 46 1015.1
20260905193100 81 34 2.0 8.0 0.00 0.00 0.00 47 1015.3
20260905193017 81 34 2.0 8.0 0.00 0.00 0.00 47 1015.3
20260905192530 81 38 3.0 8.0 0.00 0.00 0.00 48 1015.4
20260905192045 81 34 3.0 8.0 0.00 0.00 0.00 48 1015.4
20260905191607 81 37 5.0 8.0 0.00 0.00 0.00 48 1015.4
20260905191058 81 38 4.0 6.0 0.00 0.00 0.00 46 1015.4
20260905190548 81 34 3.0 6.0 0.00 0.00 0.00 46 1015.5
20260905190048 81 34 3.0 5.0 0.00 0.00 0.00 46 1015.5
20260905185540 81 34 4.0 6.0 0.00 0.00 0.00 46 1015.4
20260905185113 81 35 4.0 6.0 0.00 0.00 0.00 46 1015.5
20260905185030 81 35 4.0 6.0 0.00 0.00 0.00 46 1015.5
20260905184553 81 35 4.0 6.0 0.00 0.00 0.00 46 1015.5
20260905184104 81 35 4.0 6.0 0.00 0.00 0.00 45 1015.5
20260905184022 81 35 4.0 6.0 0.00 0.00 0.00 45 1015.5
20260905183535 81 35 3.0 6.0 0.00 0.00 0.00 45 1015.6
20260905183053 81 36 4.0 6.0 0.00 0.00 0.00 45 1015.6
20260905182546 81 35 4.0 6.0 0.00 0.00 0.00 45 1015.7
20260905182019 81 34 3.0 5.0 0.00 0.00 0.00 43 1015.6
20260905181612 81 34 3.0 5.0 0.00 0.00 0.00 43 1015.6
20260905181530 81 34 3.0 5.0 0.00 0.00 0.00 43 1015.6
20260905181023 81 35 2.0 4.0 0.00 0.00 0.00 42 1015.6
20260905180557 81 35 1.0 4.0 0.00 0.00 0.00 40 1015.7
20260905180014 80 34 2.0 4.0 0.00 0.00 0.00 41 1015.6
20260905175527 80 35 0.0 4.0 0.00 0.00 0.00 38 1015.7
20260905175021 80 36 2.0 4.0 0.00 0.00 0.00 40 1015.7
20260905174543 80 35 1.0 3.0 0.00 0.00 0.00 40 1015.6
20260905174056 79 36 2.0 4.0 0.00 0.00 0.00 40 1015.6
20260905174013 79 36 2.0 4.0 0.00 0.00 0.00 40 1015.6
20260905173548 79 36 2.0 4.0 0.00 0.00 0.00 40 1015.6
20260905173025 79 37 2.0 3.0 0.00 0.00 0.00 40 1015.6
20260905172538 79 35 1.0 4.0 0.00 0.00 0.00 40 1015.5
20260905172111 79 37 2.0 3.0 0.00 0.00 0.00 42 1015.5
20260905171549 78 34 1.0 3.0 0.00 0.00 0.00 43 1015.5
20260905171043 78 35 1.0 4.0 0.00 0.00 0.00 44 1015.5
20260905170514 77 38 2.0 4.0 0.00 0.00 0.00 44 1015.5
20260905170034 77 34 2.0 4.0 0.00 0.00 0.00 46 1015.5
20260905165527 76 38 2.0 4.0 0.00 0.00 0.00 48 1015.5
20260905165101 76 35 1.0 3.0 0.00 0.00 0.00 48 1015.5
20260905164539 75 35 2.0 3.0 0.00 0.00 0.00 48 1015.4
20260905164031 75 34 1.0 2.0 0.00 0.00 0.00 50 1015.4
20260905163604 75 36 0.0 2.0 0.00 0.00 0.00 51 1015.5
20260905163522 75 36 0.0 2.0 0.00 0.00 0.00 51 1015.5
20260905163101 74 32 1.0 2.0 0.00 0.00 0.00 51 1015.4
20260905162515 74 34 0.0 2.0 0.00 0.00 0.00 52 1015.4
20260905162050 74 35 1.0 2.0 0.00 0.00 0.00 52 1015.4
20260905161607 73 37 0.0 2.0 0.00 0.00 0.00 51 1015.3
20260905161524 73 37 0.0 2.0 0.00 0.00 0.00 51 1015.3
20260905161057 73 36 1.0 2.0 0.00 0.00 0.00 52 1015.3
20260905160529 73 36 1.0 2.0 0.00 0.00 0.00 52 1015.4
20260905160027 73 35 1.0 3.0 0.00 0.00 0.00 50 1015.4
20260905155519 73 34 2.0 5.0 0.00 0.00 0.00 53 1015.4
20260905155037 73 36 3.0 5.0 0.00 0.00 0.00 53 1015.4
20260905154555 73 35 2.0 5.0 0.00 0.00 0.00 57 1015.4
20260905154045 72 35 1.0 2.0 0.00 0.00 0.00 59 1015.4
20260905153558 71 35 0.0 1.0 0.00 0.00 0.00 60 1015.3
20260905153058 71 38 0.0 3.0 0.00 0.00 0.00 61 1015.3
20260905153016 71 38 0.0 3.0 0.00 0.00 0.00 61 1015.3
20260905152551 71 35 2.0 6.0 0.00 0.00 0.00 60 1015.2
20260905152043 71 35 2.0 6.0 0.00 0.00 0.00 59 1015.2
20260905151543 70 37 2.0 4.0 0.00 0.00 0.00 60 1015.2
20260905151015 69 34 3.0 4.0 0.00 0.00 0.00 62 1015.1
20260905150528 69 38 2.0 4.0 0.00 0.00 0.00 66 1015.1
20260905150047 68 35 2.0 3.0 0.00 0.00 0.00 69 1015.1
20260905145519 68 35 1.0 2.0 0.00 0.00 0.00 71 1015.1
20260905145017 67 38 1.0 2.0 0.00 0.00 0.00 72 1015.0
20260905144516 66 36 0.0 3.0 0.00 0.00 0.00 74 1015.0
20260905144050 66 34 1.0 3.0 0.00 0.00 0.00 74 1014.9
20260905143541 65 35 0.0 3.0 0.00 0.00 0.00 76 1014.8
20260905143041 64 35 1.0 6.0 0.00 0.00 0.00 79 1014.7
20260905142533 64 35 1.0 6.0 0.00 0.00 0.00 79 1014.7
20260905142046 63 37 4.0 6.0 0.00 0.00 0.00 81 1014.5
20260905141545 63 38 3.0 6.0 0.00 0.00 0.00 81 1014.5
20260905141112 63 38 4.0 6.0 0.00 0.00 0.00 80 1014.7
20260905141030 63 38 4.0 6.0 0.00 0.00 0.00 80 1014.7
20260905140523 63 35 1.0 4.0 0.00 0.00 0.00 78 1014.6
20260905140028 64 35 0.0 3.0 0.00 0.00 0.00 76 1014.5
20260905135543 64 36 2.0 3.0 0.00 0.00 0.00 76 1014.3
20260905135017 64 36 1.0 3.0 0.00 0.00 0.00 76 1014.3
20260905134537 63 35 1.0 3.0 0.00 0.00 0.00 78 1014.3
20260905134030 63 38 0.0 2.0 0.00 0.00 0.00 80 1014.3
20260905133604 63 34 1.0 2.0 0.00 0.00 0.00 81 1014.3
20260905133105 63 34 0.0 1.0 0.00 0.00 0.00 81 1014.1
20260905133022 63 34 0.0 1.0 0.00 0.00 0.00 81 1014.1
20260905132534 64 36 0.0 0.0 0.00 0.00 0.00 82 1014.1
20260905132109 64 32 0.0 1.0 0.00 0.00 0.00 83 1014.1
20260905132026 64 32 0.0 1.0 0.00 0.00 0.00 83 1014.1
20260905131527 63 35 0.0 2.0 0.00 0.00 0.00 84 1014.0
20260905131021 63 35 1.0 2.0 0.00 0.00 0.00 84 1014.0
20260905130514 64 36 0.0 2.0 0.00 0.00 0.00 83 1014.0
20260905130015 64 35 0.0 2.0 0.00 0.00 0.00 84 1014.1
20260905125527 64 36 0.0 2.0 0.00 0.00 0.00 84 1014.1
20260905125043 63 35 1.0 2.0 0.00 0.00 0.00 85 1014.1
20260905124523 63 36 1.0 2.0 0.00 0.00 0.00 86 1014.1
20260905124056 63 37 1.0 2.0 0.00 0.00 0.00 85 1014.1
20260905123608 63 36 0.0 2.0 0.00 0.00 0.00 86 1014.1
20260905123110 63 35 0.0 2.0 0.00 0.00 0.00 87 1014.2
20260905123027 63 35 0.0 2.0 0.00 0.00 0.00 87 1014.2
20260905122520 63 35 0.0 2.0 0.00 0.00 0.00 88 1014.1
20260905122053 62 37 1.0 2.0 0.00 0.00 0.00 87 1014.1
20260905121553 62 35 0.0 0.0 0.00 0.00 0.00 88 1014.2
20260905121025 62 34 0.0 0.0 0.00 0.00 0.00 88 1014.2
20260905120559 62 36 0.0 0.0 0.00 0.00 0.00 88 1014.1
20260905120015 62 34 0.0 0.0 0.00 0.00 0.00 88 1014.0
20260905115528 62 37 0.0 0.0 0.00 0.00 0.00 89 1014.0
20260905115043 62 34 0.0 0.0 0.00 0.00 0.00 88 1013.9
20260905114614 62 34 0.0 0.0 0.00 0.00 0.00 88 1014.0
20260905114532 62 34 0.0 0.0 0.00 0.00 0.00 88 1014.0
20260905114025 62 37 0.0 0.0 0.00 0.00 0.00 88 1014.0
20260905113538 62 36 0.0 0.0 0.00 0.00 0.00 89 1014.1
20260905113017 62 35 0.0 0.0 0.00 0.00 0.00 88 1014.1
20260905112530 62 38 0.0 0.0 0.00 0.00 0.00 89 1014.1
20260905112023 61 36 0.0 0.0 0.00 0.00 0.00 88 1014.2
20260905111544 62 36 0.0 0.0 0.00 0.00 0.00 88 1014.3
20260905111038 62 35 0.0 0.0 0.00 0.00 0.00 88 1014.3
20260905110611 61 35 0.0 0.0 0.00 0.00 0.00 88 1014.3
20260905110049 62 36 0.0 0.0 0.00 0.00 0.00 88 1014.3
20260905105542 61 35 0.0 0.0 0.00 0.00 0.00 88 1014.3
20260905105015 61 34 0.0 0.0 0.00 0.00 0.00 87 1014.2
20260905104558 62 36 0.0 0.0 0.00 0.00 0.00 88 1014.2
20260905104105 62 37 0.0 0.0 0.00 0.00 0.00 88 1014.3
20260905103616 62 35 0.0 0.0 0.00 0.00 0.00 88 1014.2
20260905103534 62 35 0.0 0.0 0.00 0.00 0.00 88 1014.2
20260905103014 62 34 0.0 0.0 0.00 0.00 0.00 88 1014.3
20260905102528 62 34 0.0 0.0 0.00 0.00 0.00 87 1014.3
20260905102101 62 36 0.0 0.0 0.00 0.00 0.00 87 1014.4
20260905102019 62 36 0.0 0.0 0.00 0.00 0.00 87 1014.4
20260905101539 62 34 0.0 0.0 0.00 0.00 0.00 87 1014.4
20260905101112 62 36 0.0 0.0 0.00 0.00 0.00 87 1014.4
20260905101029 62 36 0.0 0.0 0.00 0.00 0.00 87 1014.4
20260905100523 62 34 0.0 0.0 0.00 0.00 0.00 87 1014.4
20260905100046 62 32 0.0 0.0 0.00 0.00 0.00 87 1014.4
20260905095539 62 34 0.0 0.0 0.00 0.00 0.00 87 1014.4
20260905095051 62 37 0.0 0.0 0.00 0.00 0.00 86 1014.5
20260905094529 62 36 0.0 0.0 0.00 0.00 0.00 87 1014.5
20260905094023 62 38 0.0 0.0 0.00 0.00 0.00 88 1014.5
20260905093536 62 38 0.0 0.0 0.00 0.00 0.00 87 1014.5
20260905093036 62 36 0.0 0.0 0.00 0.00 0.00 87 1014.5
20260905092549 62 34 0.0 0.0 0.00 0.00 0.00 87 1014.5
20260905092042 62 36 0.0 0.0 0.00 0.00 0.00 87 1014.5
20260905091606 62 36 0.0 0.0 0.00 0.00 0.00 86 1014.5
20260905091523 62 36 0.0 0.0 0.00 0.00 0.00 86 1014.5
20260905091057 62 34 0.0 0.0 0.00 0.00 0.00 87 1014.4
20260905090528 63 35 0.0 0.0 0.00 0.00 0.00 88 1014.4
20260905090049 62 35 0.0 0.0 0.00 0.00 0.00 88 1014.5
20260905085541 63 36 0.0 0.0 0.00 0.00 0.00 88 1014.6
20260905085113 63 38 0.0 0.0 0.00 0.00 0.00 87 1014.6
20260905085030 63 38 0.0 0.0 0.00 0.00 0.00 87 1014.6
20260905084529 63 37 0.0 0.0 0.00 0.00 0.00 88 1014.8
20260905084042 62 35 0.0 0.0 0.00 0.00 0.00 87 1014.8
20260905083535 62 35 0.0 0.0 0.00 0.00 0.00 86 1014.8
20260905083015 63 38 0.0 0.0 0.00 0.00 0.00 87 1014.8
20260905082548 63 35 0.0 0.0 0.00 0.00 0.00 86 1014.9
20260905082021 63 38 0.0 0.0 0.00 0.00 0.00 87 1014.9
20260905081521 63 36 0.0 2.0 0.00 0.00 0.00 86 1015.0
20260905081014 63 36 1.0 2.0 0.00 0.00 0.00 87 1015.1
20260905080607 64 35 1.0 2.0 0.00 0.00 0.00 87 1015.1
20260905080107 64 35 0.0 2.0 0.00 0.00 0.00 87 1015.1
20260905080024 64 35 0.0 2.0 0.00 0.00 0.00 87 1015.1
20260905075558 64 35 1.0 3.0 0.00 0.00 0.00 87 1015.2
20260905075515 64 35 1.0 3.0 0.00 0.00 0.00 87 1015.2
20260905075029 64 36 1.0 3.0 0.00 0.00 0.00 88 1015.2
20260905074527 63 38 0.0 0.0 0.00 0.00 0.00 87 1015.3
20260905074101 63 34 0.0 0.0 0.00 0.00 0.00 88 1015.3
20260905073553 63 37 0.0 0.0 0.00 0.00 0.00 88 1015.3